Weather History for KFDW - October, 2012

Change the Weather History Date:

Tuesday, October 30, 2012

  Actual Average Record
Temperature  
Mean Temperature 54 °F -  
Max Temperature 59 °F 69 °F 78 °F (2013)
Min Temperature 48 °F 46 °F 37 °F (2011)
Degree Days  
Heating Degree Days 12    
Growing Degree Days 4 (Base 50)    
Moisture  
Dew Point 33 °F    
Average Humidity 48    
Maximum Humidity 58    
Minimum Humidity 36    
Precipitation  
Precipitation 0.00 in - - ()
Sea Level Pressure  
Sea Level Pressure 29.56 in    
Wind  
Wind Speed 11 mph (West)    
Max Wind Speed 17 mph    
Max Gust Speed 26 mph    
Visibility 10 miles    
Events      
Averages and records for this station are not official NWS values.
T = Trace of Precipitation, MM = Missing Value Source: NWS Daily Summary

Daily Weather History Graph

Daily Weather History Graph

Search for Another Location

Airport or City:

Trip Planner

Search our weather history database for the weather conditions in past years. The results will help you decide how hot, cold, wet, or windy it might be!

Date:

Astronomy

Oct. 30, 2012 Rise Set
Actual Time 7:43 AM EDT 6:32 PM EDT
Civil Twilight 7:17 AM EDT 6:58 PM EDT
Nautical Twilight 6:47 AM EDT 7:28 PM EDT
Astronomical Twilight 6:18 AM EDT 7:57 PM EDT
Moon 7:05 PM EDT (10/30) 8:25 AM EDT (10/30)
Length of Visible Light 11h 41m
Length of Day
10h 49m
Full, 99% of the Moon is Illuminated
Oct 30
Full
Nov 6
Last Quarter
Nov 13
New
Nov 20
First Quarter
Nov 28
Full

Hourly Weather History & Observations

Time (EDT) Temp. Dew Point Humidity Pressure Visibility Wind Dir Wind Speed Gust Speed Precip Events Conditions
12:15 AM 50.0 °F 32.0 °F 50% 29.57 in 10.0 mi WNW 12.7 mph 21.9 mph N/A   Clear
12:35 AM 50.0 °F 32.0 °F 50% 29.57 in 10.0 mi WNW 8.1 mph 19.6 mph N/A   Clear
12:55 AM 50.0 °F 32.0 °F 50% 29.57 in 10.0 mi West 11.5 mph - N/A   Clear
1:15 AM 50.0 °F 32.0 °F 50% 29.56 in 10.0 mi West 8.1 mph 16.1 mph N/A   Clear
1:35 AM 50.0 °F 33.8 °F 54% 29.55 in 10.0 mi West 8.1 mph - N/A   Clear
1:55 AM 50.0 °F 33.8 °F 54% 29.55 in 10.0 mi West 9.2 mph 17.3 mph N/A   Clear
2:15 AM 50.0 °F 33.8 °F 54% 29.54 in 10.0 mi West 10.4 mph 18.4 mph N/A   Clear
2:35 AM 50.0 °F 33.8 °F 54% 29.53 in 10.0 mi West 9.2 mph - N/A   Clear
2:55 AM 50.0 °F 33.8 °F 54% 29.52 in 10.0 mi WNW 11.5 mph 20.7 mph N/A   Clear
3:15 AM 50.0 °F 33.8 °F 54% 29.52 in 10.0 mi West 10.4 mph 16.1 mph N/A   Clear
3:35 AM 50.0 °F 33.8 °F 54% 29.52 in 10.0 mi West 11.5 mph 17.3 mph N/A   Clear
3:55 AM 50.0 °F 33.8 °F 54% 29.51 in 10.0 mi West 13.8 mph 18.4 mph N/A   Clear
4:15 AM 50.0 °F 33.8 °F 54% 29.51 in 10.0 mi West 13.8 mph 23.0 mph N/A   Clear
4:35 AM 50.0 °F 33.8 °F 54% 29.50 in 10.0 mi West 9.2 mph 18.4 mph N/A   Clear
4:55 AM 50.0 °F 33.8 °F 54% 29.50 in 10.0 mi WNW 9.2 mph 17.3 mph N/A   Clear
5:15 AM 48.2 °F 33.8 °F 58% 29.50 in 10.0 mi West 6.9 mph 16.1 mph N/A   Clear
5:35 AM 48.2 °F 33.8 °F 58% 29.50 in 10.0 mi West 6.9 mph 16.1 mph N/A   Clear
5:55 AM 48.2 °F 33.8 °F 58% 29.50 in 10.0 mi West 11.5 mph 17.3 mph N/A   Light Drizzle
6:15 AM 48.2 °F 33.8 °F 58% 29.51 in 10.0 mi West 10.4 mph - N/A   Light Drizzle
6:35 AM 48.2 °F 32.0 °F 54% 29.51 in 10.0 mi West 10.4 mph 19.6 mph N/A   Clear
7:15 AM 48.2 °F 32.0 °F 54% 29.51 in 10.0 mi West 10.4 mph 17.3 mph N/A   Clear
7:35 AM 48.2 °F 32.0 °F 54% 29.51 in 10.0 mi West 11.5 mph 18.4 mph N/A   Clear
7:55 AM 48.2 °F 32.0 °F 54% 29.51 in 10.0 mi West 10.4 mph - N/A   Clear
8:15 AM 50.0 °F 32.0 °F 50% 29.52 in 10.0 mi West 10.4 mph - N/A   Clear
8:35 AM 50.0 °F 32.0 °F 50% 29.52 in 10.0 mi West 12.7 mph 17.3 mph N/A   Clear
8:55 AM 50.0 °F 32.0 °F 50% 29.52 in 10.0 mi West 9.2 mph - N/A   Clear
9:15 AM 50.0 °F 32.0 °F 50% 29.53 in 10.0 mi West 6.9 mph - N/A   Clear
9:35 AM 50.0 °F 32.0 °F 50% 29.53 in 10.0 mi West 5.8 mph - N/A   Light Drizzle
9:55 AM 50.0 °F 32.0 °F 50% 29.54 in 10.0 mi West 9.2 mph - N/A   Clear
10:15 AM 51.8 °F 32.0 °F 47% 29.54 in 10.0 mi West 16.1 mph 19.6 mph N/A   Clear
10:35 AM 51.8 °F 32.0 °F 47% 29.54 in 10.0 mi West 15.0 mph 24.2 mph N/A   Clear
10:55 AM 51.8 °F 32.0 °F 47% 29.54 in 10.0 mi West 16.1 mph 23.0 mph N/A   Clear
11:15 AM 51.8 °F 33.8 °F 50% 29.54 in 10.0 mi West 9.2 mph 21.9 mph N/A   Clear
11:55 AM 53.6 °F 33.8 °F 47% 29.54 in 10.0 mi West 11.5 mph 20.7 mph N/A   Clear
12:15 PM 53.6 °F 33.8 °F 47% 29.54 in 10.0 mi WSW 12.7 mph 16.1 mph N/A   Clear
12:35 PM 55.4 °F 33.8 °F 44% 29.55 in 10.0 mi West 11.5 mph 18.4 mph N/A   Clear
12:55 PM 55.4 °F 33.8 °F 44% 29.55 in 10.0 mi West 12.7 mph 18.4 mph N/A   Clear
1:35 PM 59.0 °F 33.8 °F 39% 29.54 in 10.0 mi WSW 10.4 mph 18.4 mph N/A   Clear
1:55 PM 57.2 °F 33.8 °F 41% 29.54 in 10.0 mi WSW 13.8 mph 19.6 mph N/A   Clear
2:15 PM 59.0 °F 32.0 °F 36% 29.54 in 10.0 mi SW 8.1 mph 19.6 mph N/A   Clear
2:35 PM 59.0 °F 32.0 °F 36% 29.54 in 10.0 mi West 15.0 mph 24.2 mph N/A   Clear
2:55 PM 57.2 °F 32.0 °F 38% 29.54 in 10.0 mi West 11.5 mph 20.7 mph N/A   Clear
3:15 PM 57.2 °F 32.0 °F 38% 29.54 in 10.0 mi WSW 12.7 mph 21.9 mph N/A   Clear
3:35 PM 57.2 °F 32.0 °F 38% 29.54 in 10.0 mi West 11.5 mph 21.9 mph N/A   Clear
3:55 PM 57.2 °F 32.0 °F 38% 29.54 in 10.0 mi WNW 17.3 mph 24.2 mph N/A   Clear
4:15 PM 55.4 °F 32.0 °F 41% 29.55 in 10.0 mi West 11.5 mph 18.4 mph N/A   Clear
4:35 PM 55.4 °F 32.0 °F 41% 29.56 in 10.0 mi West 15.0 mph 23.0 mph N/A   Clear
4:55 PM 55.4 °F 32.0 °F 41% 29.56 in 10.0 mi West 11.5 mph 20.7 mph N/A   Clear
5:15 PM 55.4 °F 32.0 °F 41% 29.57 in 10.0 mi West 9.2 mph 19.6 mph N/A   Clear
5:35 PM 55.4 °F 33.8 °F 44% 29.58 in 10.0 mi West 15.0 mph 23.0 mph N/A   Clear
5:55 PM 53.6 °F 33.8 °F 47% 29.58 in 10.0 mi West 11.5 mph 19.6 mph N/A   Clear
6:15 PM 53.6 °F 33.8 °F 47% 29.59 in 10.0 mi West 16.1 mph 21.9 mph N/A   Clear
6:35 PM 53.6 °F 33.8 °F 47% 29.60 in 10.0 mi West 13.8 mph 19.6 mph N/A   Clear
6:55 PM 53.6 °F 33.8 °F 47% 29.61 in 10.0 mi West 13.8 mph 18.4 mph N/A   Clear
7:15 PM 53.6 °F 33.8 °F 47% 29.62 in 10.0 mi West 9.2 mph 19.6 mph N/A   Scattered Clouds
7:35 PM 53.6 °F 32.0 °F 44% 29.64 in 10.0 mi West 17.3 mph 23.0 mph N/A   Scattered Clouds
7:55 PM 53.6 °F 32.0 °F 44% 29.65 in 10.0 mi West 9.2 mph 25.3 mph N/A   Clear
8:15 PM 51.8 °F 33.8 °F 50% 29.66 in 10.0 mi WNW 16.1 mph 25.3 mph N/A   Clear
8:55 PM 51.8 °F 33.8 °F 50% 29.67 in 10.0 mi WNW 15.0 mph 26.5 mph N/A   Clear
9:15 PM 51.8 °F 32.0 °F 47% 29.67 in 10.0 mi WNW 12.7 mph 21.9 mph N/A   Clear
9:35 PM 51.8 °F 32.0 °F 47% 29.68 in 10.0 mi West 9.2 mph 19.6 mph N/A   Clear
9:55 PM 51.8 °F 32.0 °F 47% 29.68 in 10.0 mi West 12.7 mph 20.7 mph N/A   Clear
10:15 PM 51.8 °F 32.0 °F 47% 29.68 in 10.0 mi West 9.2 mph 16.1 mph N/A   Clear
10:35 PM 51.8 °F 32.0 °F 47% 29.69 in 10.0 mi West 10.4 mph - N/A   Clear
10:55 PM 51.8 °F 32.0 °F 47% 29.70 in 10.0 mi West 9.2 mph 16.1 mph N/A   Clear
11:15 PM 51.8 °F 33.8 °F 50% 29.70 in 10.0 mi West 8.1 mph - N/A   Clear
11:55 PM 50.0 °F 33.8 °F 54% 29.70 in 10.0 mi West 9.2 mph - N/A   Clear